GW2952 Weather Reports


time (UTC)temp
C
wind
direction
speed
KPH
gust
KPH
rain 1hr
cm
rain 24hr
cm
rain mn
cm
humidity
%
barometer
mb
20260506104503 15 140 4.8 16.1 0.00 0.00 0.00 76 1008.5
20260506104003 15 155 4.8 16.1 0.00 0.00 0.00 76 1008.5
20260506103503 15 158 3.2 14.5 0.00 0.00 0.00 75 1008.5
20260506103003 15 161 3.2 14.5 0.00 0.00 0.00 75 1008.5
20260506102503 15 164 3.2 12.9 0.00 0.00 0.00 74 1008.5
20260506102003 15 148 4.8 16.1 0.00 0.00 0.00 74 1008.3
20260506101524 15 135 4.8 16.1 0.00 0.00 0.00 74 1008.4
20260506101003 15 131 4.8 14.5 0.00 0.00 0.00 73 1008.4
20260506100503 15 143 3.2 14.5 0.00 0.00 0.00 72 1008.5
20260506100004 15 156 3.2 11.3 0.00 0.00 0.00 72 1008.6
20260506095503 15 164 3.2 17.7 0.00 0.00 0.00 71 1008.5
20260506095024 15 156 3.2 17.7 0.00 0.00 0.00 72 1008.5
20260506094524 15 132 1.6 11.3 0.00 0.00 0.00 70 1008.4
20260506094003 15 151 1.6 11.3 0.00 0.00 0.00 70 1008.4
20260506093503 15 151 1.6 11.3 0.00 0.00 0.00 69 1008.6
20260506093003 15 135 1.6 6.4 0.00 0.00 0.00 69 1008.5
20260506092524 15 126 1.6 6.4 0.00 0.00 0.00 69 1008.6
20260506092003 15 169 1.6 11.3 0.00 0.00 0.00 67 1008.6
20260506091503 15 177 3.2 11.3 0.00 0.00 0.00 68 1008.6
20260506091003 15 169 1.6 11.3 0.00 0.00 0.00 67 1008.6
20260506090524 15 149 1.6 9.7 0.00 0.00 0.00 67 1008.7
20260506090024 15 156 3.2 16.1 0.00 0.00 0.00 67 1008.6
20260506085524 15 171 3.2 16.1 0.00 0.00 0.00 66 1008.7
20260506085003 15 167 3.2 16.1 0.00 0.00 0.00 66 1009.0
20260506084503 15 170 3.2 11.3 0.00 0.00 0.00 66 1009.0
20260506084003 15 169 3.2 9.7 0.00 0.00 0.00 66 1008.8
20260506083503 15 163 3.2 9.7 0.00 0.00 0.00 66 1008.9
20260506083003 16 157 3.2 11.3 0.00 0.00 0.00 66 1008.8
20260506082503 16 173 4.8 14.5 0.00 0.00 0.00 65 1008.7
20260506082003 16 183 4.8 17.7 0.00 0.00 0.00 66 1008.8
20260506081503 16 201 4.8 17.7 0.00 0.00 0.00 65 1008.9
20260506081003 16 195 6.4 22.5 0.00 0.00 0.00 64 1008.9
20260506080503 16 177 6.4 22.5 0.00 0.00 0.00 65 1008.9
20260506073503 16 175 6.4 22.5 0.00 0.00 0.00 63 1009.0
20260506073003 16 171 8.0 22.5 0.00 0.00 0.00 63 1009.3
20260506072524 16 176 6.4 22.5 0.00 0.00 0.00 63 1009.1
20260506072003 16 182 6.4 17.7 0.00 0.00 0.00 62 1009.2
20260506071503 16 186 6.4 17.7 0.00 0.00 0.00 62 1009.0
20260506071003 16 202 6.4 22.5 0.00 0.00 0.00 62 1009.3
20260506070503 16 191 4.8 22.5 0.00 0.00 0.00 62 1009.1
20260506062503 16 180 3.2 12.9 0.00 0.00 0.00 60 1009.5
20260506062003 16 197 3.2 11.3 0.00 0.00 0.00 60 1009.6
20260506061503 16 178 3.2 12.9 0.00 0.00 0.00 60 1009.7
20260506061003 16 183 4.8 12.9 0.00 0.00 0.00 60 1009.6
20260506060503 16 186 3.2 12.9 0.00 0.00 0.00 60 1009.7
20260506051003 16 146 3.2 12.9 0.00 0.00 0.00 58 1009.9
20260506050503 16 144 4.8 12.9 0.00 0.00 0.00 57 1009.8
20260506045004 16 158 4.8 16.1 0.00 0.00 0.00 57 1009.9
20260506044503 16 158 4.8 16.1 0.00 0.00 0.00 56 1010.1
20260506044024 16 170 3.2 12.9 0.00 0.00 0.00 57 1009.9
20260506043503 16 150 3.2 9.7 0.00 0.00 0.00 56 1010.0
20260506043003 17 156 3.2 14.5 0.00 0.00 0.00 56 1010.1
20260506042503 17 162 3.2 14.5 0.00 0.00 0.00 55 1010.2
20260506042003 17 151 3.2 12.9 0.00 0.00 0.00 55 1009.9
20260506041503 17 155 3.2 16.1 0.00 0.00 0.00 55 1009.9
20260506041024 17 160 4.8 16.1 0.00 0.00 0.00 55 1010.1
20260506040503 17 164 4.8 11.3 0.00 0.00 0.00 55 1010.1
20260506040003 17 172 4.8 11.3 0.00 0.00 0.00 55 1010.2
20260506035524 17 162 3.2 9.7 0.00 0.00 0.00 55 1010.2
20260506035003 17 159 3.2 9.7 0.00 0.00 0.00 55 1010.1
20260506034503 17 162 3.2 9.7 0.00 0.00 0.00 54 1010.2
20260506034003 17 150 3.2 9.7 0.00 0.00 0.00 54 1010.2
20260506033503 17 156 3.2 12.9 0.00 0.00 0.00 53 1010.0
20260506033003 17 166 4.8 12.9 0.00 0.00 0.00 53 1010.0
20260506032503 17 167 6.4 22.5 0.00 0.00 0.00 52 1010.1
20260506032003 17 164 4.8 22.5 0.00 0.00 0.00 52 1010.0
20260506031524 17 150 4.8 12.9 0.00 0.00 0.00 52 1010.1
20260506031003 17 152 3.2 12.9 0.00 0.00 0.00 52 1010.1
20260506030524 17 162 3.2 16.1 0.00 0.00 0.00 52 1010.2
20260506030024 17 170 4.8 16.1 0.00 0.00 0.00 52 1010.0
20260506025524 18 170 3.2 14.5 0.00 0.00 0.00 51 1010.1
20260506025003 18 139 3.2 16.1 0.00 0.00 0.00 51 1010.1
20260506024503 18 133 4.8 16.1 0.00 0.00 0.00 51 1010.1
20260506024024 18 138 4.8 14.5 0.00 0.00 0.00 51 1010.2
20260506023524 18 146 4.8 14.5 0.00 0.00 0.00 51 1010.1
20260506023024 18 153 4.8 14.5 0.00 0.00 0.00 51 1010.2
20260506022524 18 180 4.8 16.1 0.00 0.00 0.00 50 1010.2
20260506022003 18 173 6.4 20.9 0.00 0.00 0.00 49 1010.2
20260506021503 18 160 4.8 20.9 0.00 0.00 0.00 49 1010.2
20260506021003 18 157 4.8 14.5 0.00 0.00 0.00 49 1010.1
20260506020503 18 163 3.2 20.9 0.00 0.00 0.00 49 1010.1
20260506020003 19 156 3.2 20.9 0.00 0.00 0.00 48 1010.2
20260506015503 19 156 4.8 22.5 0.00 0.00 0.00 48 1010.2
20260506015003 19 182 4.8 22.5 0.00 0.00 0.00 48 1010.1
20260506014524 19 191 3.2 17.7 0.00 0.00 0.00 47 1009.9
20260506014003 19 165 3.2 16.1 0.00 0.00 0.00 47 1009.9
20260506013503 19 168 4.8 16.1 0.00 0.00 0.00 47 1009.9
20260506013003 20 171 4.8 12.9 0.00 0.00 0.00 46 1010.0
20260506012503 20 171 6.4 12.9 0.00 0.00 0.00 47 1009.7
20260506012003 20 169 4.8 14.5 0.00 0.00 0.00 46 1009.7
20260506011503 20 168 4.8 17.7 0.00 0.00 0.00 46 1009.8
20260506011003 20 173 4.8 17.7 0.00 0.00 0.00 45 1009.9
20260506010524 20 162 4.8 17.7 0.00 0.00 0.00 45 1009.6
20260506010003 20 164 6.4 22.5 0.00 0.00 0.00 44 1009.5
20260506005503 20 185 8.0 22.5 0.00 0.00 0.00 44 1009.4
20260506005024 20 205 6.4 20.9 0.00 0.00 0.00 44 1009.3
20260506004503 20 195 6.4 24.1 0.00 0.00 0.00 44 1009.3
20260506004003 20 175 6.4 24.1 0.00 0.00 0.00 44 1009.5
20260506003503 20 155 4.8 17.7 0.00 0.00 0.00 44 1009.3
20260506003003 20 152 3.2 17.7 0.00 0.00 0.00 44 1009.5
20260506002503 20 170 3.2 16.1 0.00 0.00 0.00 44 1009.2
20260506002024 20 173 4.8 17.7 0.00 0.00 0.00 44 1009.3
20260506001503 20 166 4.8 22.5 0.00 0.00 0.00 44 1009.0
20260506001003 20 165 4.8 22.5 0.00 0.00 0.00 44 1009.2
20260506000503 20 167 4.8 17.7 0.00 0.00 0.00 44 1009.3
20260506000003 20 166 3.2 14.5 0.00 0.00 0.00 44 1009.2
20260505235503 20 196 3.2 24.1 0.00 0.00 0.00 44 1009.2
20260505235003 21 194 4.8 24.1 0.00 0.00 0.00 44 1009.2
20260505234503 21 183 4.8 17.7 0.00 0.00 0.00 44 1009.3
20260505234003 21 180 6.4 20.9 0.00 0.00 0.00 44 1009.0
20260505233503 21 179 6.4 24.1 0.00 0.00 0.00 44 1009.1
20260505233003 21 179 4.8 27.4 0.00 0.00 0.00 44 1008.9
20260505232524 21 178 3.2 27.4 0.00 0.00 0.00 44 1009.2
20260505232024 21 166 3.2 12.9 0.00 0.00 0.00 43 1009.1
20260505231524 21 172 4.8 24.1 0.00 0.00 0.00 43 1009.1
20260505231003 21 182 3.2 24.1 0.00 0.00 0.00 43 1009.0
20260505230524 21 183 3.2 11.3 0.00 0.00 0.00 42 1009.0
20260505230003 21 172 4.8 14.5 0.00 0.00 0.00 42 1009.0
20260505225503 21 168 4.8 14.5 0.00 0.00 0.00 42 1008.9
20260505225003 21 167 4.8 20.9 0.00 0.00 0.00 42 1008.9
20260505224503 21 176 4.8 20.9 0.00 0.00 0.00 42 1008.7
20260505224003 21 191 4.8 25.7 0.00 0.00 0.00 42 1008.9
20260505223503 21 184 6.4 25.7 0.00 0.00 0.00 42 1008.9
20260505223024 21 180 8.0 22.5 0.00 0.00 0.00 42 1008.8
20260505222503 21 182 6.4 22.5 0.00 0.00 0.00 42 1008.7
20260505222024 21 195 6.4 20.9 0.00 0.00 0.00 42 1008.7
20260505221503 21 204 4.8 17.7 0.00 0.00 0.00 42 1008.6
20260505221003 21 183 4.8 22.5 0.00 0.00 0.00 42 1008.4
20260505220503 21 178 8.0 22.5 0.00 0.00 0.00 42 1008.8
20260505220024 21 180 8.0 22.5 0.00 0.00 0.00 41 1009.0
20260505215503 21 176 8.0 24.1 0.00 0.00 0.00 41 1008.6
20260505215003 21 165 6.4 24.1 0.00 0.00 0.00 42 1008.7
20260505214503 21 184 4.8 20.9 0.00 0.00 0.00 41 1008.6
20260505214003 22 175 4.8 24.1 0.00 0.00 0.00 41 1008.6
20260505213503 22 175 8.0 25.7 0.00 0.00 0.00 41 1008.4
20260505213003 22 186 9.7 35.4 0.00 0.00 0.00 42 1008.4
20260505212503 22 179 8.0 35.4 0.00 0.00 0.00 41 1008.2
20260505212003 22 175 9.7 27.4 0.00 0.00 0.00 40 1008.5
20260505211503 22 184 9.7 27.4 0.00 0.00 0.00 39 1008.4
20260505211003 22 207 9.7 40.2 0.00 0.00 0.00 36 1008.2
20260505210503 22 220 9.7 40.2 0.00 0.00 0.00 35 1007.9
20260505210003 22 210 8.0 35.4 0.00 0.00 0.00 35 1008.2
20260505205503 22 176 9.7 29.0 0.00 0.00 0.00 35 1008.2
20260505205003 22 168 8.0 29.0 0.00 0.00 0.00 35 1008.2
20260505204503 23 180 9.7 33.8 0.00 0.00 0.00 35 1008.0
20260505204003 23 188 11.3 33.8 0.00 0.00 0.00 34 1008.0
20260505203524 23 194 8.0 27.4 0.00 0.00 0.00 34 1008.1
20260505203003 23 176 8.0 22.5 0.00 0.00 0.00 37 1008.3
20260505202503 22 163 9.7 43.5 0.00 0.00 0.00 35 1008.1
20260505202003 23 166 12.9 43.5 0.00 0.00 0.00 34 1008.3
20260505201503 23 159 11.3 30.6 0.00 0.00 0.00 34 1008.1
20260505201024 22 185 11.3 35.4 0.00 0.00 0.00 34 1008.2
20260505200503 23 191 11.3 35.4 0.00 0.00 0.00 35 1008.1
20260505200003 23 166 11.3 27.4 0.00 0.00 0.00 34 1008.4
20260505195503 23 179 11.3 29.0 0.00 0.00 0.00 35 1008.3
20260505195003 23 198 9.7 29.0 0.00 0.00 0.00 35 1008.4
20260505194524 23 201 9.7 38.6 0.00 0.00 0.00 36 1008.5
20260505194003 23 202 11.3 41.8 0.00 0.00 0.00 36 1008.5
20260505193503 23 204 11.3 41.8 0.00 0.00 0.00 37 1008.3
20260505193003 23 192 11.3 43.5 0.00 0.00 0.00 35 1008.7
20260505192503 23 173 12.9 43.5 0.00 0.00 0.00 35 1008.5
20260505192024 23 164 12.9 43.5 0.00 0.00 0.00 35 1008.8
20260505191503 23 169 12.9 35.4 0.00 0.00 0.00 36 1008.5
20260505191024 23 171 12.9 33.8 0.00 0.00 0.00 35 1008.7
20260505190503 23 170 12.9 35.4 0.00 0.00 0.00 34 1008.7
20260505190003 23 169 11.3 35.4 0.00 0.00 0.00 37 1008.7
20260505185503 23 169 11.3 35.4 0.00 0.00 0.00 36 1008.8
20260505185003 23 182 12.9 35.4 0.00 0.00 0.00 35 1008.7
20260505184503 23 186 12.9 40.2 0.00 0.00 0.00 36 1008.8
20260505184003 23 171 12.9 41.8 0.00 0.00 0.00 35 1009.0
20260505183503 23 185 11.3 41.8 0.00 0.00 0.00 36 1009.2
20260505183024 23 211 8.0 27.4 0.00 0.00 0.00 38 1009.6
20260505182503 23 179 9.7 35.4 0.00 0.00 0.00 38 1009.5
20260505182024 23 155 11.3 35.4 0.00 0.00 0.00 38 1009.5
20260505181503 23 175 9.7 29.0 0.00 0.00 0.00 39 1009.2
20260505181003 23 197 9.7 29.0 0.00 0.00 0.00 40 1009.4
20260505180503 23 174 8.0 27.4 0.00 0.00 0.00 39 1009.4
20260505180003 23 198 8.0 53.1 0.00 0.00 0.00 40 1009.3
20260505175524 23 204 11.3 53.1 0.00 0.00 0.00 39 1009.3
20260505175003 23 187 11.3 53.1 0.00 0.00 0.00 38 1009.6
20260505174503 23 190 9.7 38.6 0.00 0.00 0.00 39 1009.2
20260505174004 23 218 9.7 38.6 0.00 0.00 0.00 36 1009.3
20260505173503 23 237 9.7 38.6 0.00 0.00 0.00 39 1009.5
20260505173003 23 214 11.3 40.2 0.00 0.00 0.00 38 1009.7
20260505172524 23 205 11.3 40.2 0.00 0.00 0.00 39 1009.5
20260505172003 23 189 12.9 30.6 0.00 0.00 0.00 37 1009.6
20260505171503 23 207 9.7 30.6 0.00 0.00 0.00 39 1009.5
20260505171003 23 228 9.7 40.2 0.00 0.00 0.00 39 1009.7
20260505170503 23 204 9.7 40.2 0.00 0.00 0.00 39 1009.7
20260505170003 23 200 11.3 33.8 0.00 0.00 0.00 39 1009.5
20260505165503 23 193 12.9 41.8 0.00 0.00 0.00 37 1009.5
20260505165003 23 198 11.3 41.8 0.00 0.00 0.00 41 1009.7
20260505164503 23 188 9.7 27.4 0.00 0.00 0.00 41 1009.7
20260505164003 22 190 11.3 37.0 0.00 0.00 0.00 43 1009.9
20260505163503 22 211 9.7 37.0 0.00 0.00 0.00 43 1009.7
20260505163003 23 217 8.0 27.4 0.00 0.00 0.00 43 1009.9
20260505162503 23 238 6.4 27.4 0.00 0.00 0.00 43 1010.0
20260505162024 23 258 8.0 27.4 0.00 0.00 0.00 43 1009.9
20260505161524 23 241 8.0 38.6 0.00 0.00 0.00 45 1010.0
20260505161003 22 226 9.7 38.6 0.00 0.00 0.00 45 1010.1
20260505160503 22 210 9.7 30.6 0.00 0.00 0.00 44 1010.4
20260505153003 21 249 8.0 25.7 0.00 0.00 0.00 48 1010.5
20260505152503 21 213 9.7 30.6 0.00 0.00 0.00 48 1010.4
20260505152003 21 207 9.7 30.6 0.00 0.00 0.00 49 1010.5
20260505151503 21 213 8.0 20.9 0.00 0.00 0.00 48 1010.5
20260505151024 21 190 8.0 25.7 0.00 0.00 0.00 50 1010.7
20260505150524 21 209 6.4 25.7 0.00 0.00 0.00 47 1010.4
20260505140503 20 225 6.4 22.5 0.00 0.00 0.00 51 1010.7
20260505125003 17 223 6.4 25.7 0.00 0.00 0.00 58 1010.5
20260505124503 17 213 8.0 25.7 0.00 0.00 0.00 58 1010.6
20260505124024 17 215 6.4 24.1 0.00 0.00 0.00 58 1010.4
20260505123503 16 224 6.4 22.5 0.00 0.00 0.00 60 1010.6
20260505123003 16 230 6.4 22.5 0.00 0.00 0.00 60 1010.5
20260505122503 16 220 4.8 16.1 0.00 0.00 0.00 61 1010.7
20260505122003 16 192 4.8 16.1 0.00 0.00 0.00 62 1010.4
20260505121503 16 217 4.8 16.1 0.00 0.00 0.00 62 1010.6
20260505121003 15 223 6.4 17.7 0.00 0.00 0.00 63 1010.6
20260505120503 15 222 4.8 17.7 0.00 0.00 0.00 63 1010.5
20260505120003 15 185 4.8 24.1 0.00 0.00 0.00 63 1010.6
20260505115503 15 193 4.8 24.1 0.00 0.00 0.00 63 1010.6
20260505115003 15 209 4.8 24.1 0.00 0.00 0.00 64 1010.8
20260505114524 15 244 3.2 16.1 0.00 0.00 0.00 65 1010.5
20260505114003 15 265 3.2 16.1 0.00 0.00 0.00 66 1010.4
20260505113503 14 247 3.2 17.7 0.00 0.00 0.00 66 1010.5
20260505113003 14 212 4.8 17.7 0.00 0.00 0.00 66 1010.6
20260505112503 14 206 4.8 17.7 0.00 0.00 0.00 67 1010.3
20260505112003 14 205 3.2 11.3 0.00 0.00 0.00 67 1010.3
20260505111503 14 186 4.8 17.7 0.00 0.00 0.00 68 1010.3
20260505111003 14 184 6.4 17.7 0.00 0.00 0.00 68 1010.3
20260505110503 13 183 4.8 16.1 0.00 0.00 0.00 69 1010.3